CAPE
0 0 0 0 1 2 2 1 2 1 1 1 1 2 2 1 0 0 0 0 0 0 0 0 3 37 45 27 21 34 99 168 156 165 221 145 0 4 21 0 51 88 0 0 0
1 1 0 1 0 0 2 2 2 1 0 1 2 2 2 2 0 0 0 0 0 0 0 0 6 83 57 3 0 7 129 54 98 133 148 241 25 18 6 27 98 6 0 0 22
1 1 1 0 2 0 0 1 0 0 1 2 3 1 1 0 0 0 0 0 0 0 0 0 0 131 50 5 23 40 45 34 86 195 192 310 206 42 5 39 187 28 25 58 195
1 1 0 3 2 2 2 0 2 1 1 2 2 1 1 0 0 0 0 39 6 0 0 0 0 161 31 74 73 41 37 55 112 78 231 346 315 64 13 103 176 31 18 48 182
1 2 1 0 1 2 0 0 0 0 0 2 1 1 0 0 0 0 45 107 0 0 0 0 0 143 225 397 170 56 32 108 47 65 249 314 245 203 55 204 132 78 43 55 149
1 1 2 1 0 1 1 1 0 0 1 1 0 0 0 0 0 0 0 0 0 0 0 0 0 71 370 158 248 339 102 65 54 104 153 297 246 229 92 152 152 132 109 150 201
4 1 1 0 0 1 3 1 1 0 0 0 0 0 0 0 0 0 0 0 0 0 0 0 120 51 516 552 567 430 494 280 81 132 111 79 154 199 180 177 187 216 250 264 284
2 2 0 1 1 0 0 0 0 2 0 0 0 0 0 0 0 0 0 0 0 0 0 0 0 182 470 342 482 539 478 232 213 156 131 82 69 153 177 189 173 227 341 404 415
3 3 2 0 1 0 1 1 1 0 0 0 0 0 0 0 0 0 0 0 0 0 0 0 12 229 366 267 170 274 177 251 348 158 338 146 70 67 122 187 183 258 338 487 569
1 1 3 1 1 0 0 0 0 0 0 0 0 0 0 0 0 0 0 0 0 0 0 0 31 337 326 250 52 183 150 199 282 386 245 233 114 2 48 151 194 214 267 382 461
1 0 1 1 1 1 0 0 0 0 0 0 0 0 0 0 0 0 0 0 0 0 0 0 0 125 442 349 82 189 156 124 284 562 281 286 197 293 203 219 278 217 249 245 324
0 0 0 2 0 0 0 0 0 0 0 0 0 0 0 0 0 0 0 0 0 0 0 0 0 0 120 345 257 214 72 62 208 507 499 347 291 379 247 140 252 364 175 176 237
0 0 0 0 0 0 0 0 0 0 0 0 0 0 0 0 0 0 0 0 0 0 0 0 0 0 0 1 34 18 0 100 127 315 493 455 344 332 226 289 220 249 458 230 189
0 0 0 0 0 0 0 0 0 0 0 0 0 0 0 0 0 0 0 0 0 0 0 0 0 0 0 0 0 0 43 118 258 232 198 151 14 154 281 366 275 328 440 412 214
0 0 1 0 0 0 0 0 0 0 0 0 0 0 0 0 0 0 0 0 0 0 0 0 0 0 0 0 0 9 137 261 206 357 366 287 184 164 201 364 499 400 332 377 317
0 0 1 0 0 0 0 0 0 0 0 0 0 0 0 0 0 0 0 0 0 0 0 0 0 0 0 28 43 162 270 210 343 456 208 50 221 49 308 352 222 354 343 299 271
0 0 1 0 0 0 0 0 0 0 0 0 0 0 0 0 0 0 0 0 0 0 0 0 0 0 0 47 26 249 222 254 169 105 9 63 206 86 118 150 187 171 178 296 354
0 0 0 0 0 0 0 0 0 0 0 0 0 0 0 0 0 0 0 0 0 0 0 0 0 0 0 0 26 145 11 0 0 0 7 49 113 61 70 140 172 253 218 248 247
0 0 0 0 0 0 0 0 0 0 0 0 0 0 0 0 0 0 0 0 0 0 0 0 0 0 0 0 0 0 0 0 0 0 12 13 4 25 125 101 99 127 281 258 253
0 0 0 0 0 0 0 0 0 0 0 0 0 0 0 0 0 0 0 0 0 0 0 0 15 0 0 0 0 0 0 2 3 12 0 0 9 35 85 165 109 256 308 235 240
0 0 0 0 0 0 0 0 0 0 0 0 0 0 0 0 0 0 0 0 0 0 0 0 0 0 0 6 15 12 29 0 5 4 10 1 0 19 52 142 201 251 208 130 208
0 0 0 0 0 0 0 0 0 0 0 0 0 0 0 0 0 0 0 0 0 0 0 0 0 0 0 0 0 0 0 14 2 13 29 28 0 0 150 130 140 215 102 1 6
0 0 0 0 0 0 0 0 0 0 0 0 0 0 0 0 0 0 0 0 0 0 0 0 0 9 11 1 0 1 0 0 0 6 71 2 0 6 300 260 160 83 67 52 252
0 0 0 0 0 0 0 0 0 0 0 0 0 0 0 0 0 0 0 0 0 0 0 0 0 0 0 0 0 0 0 0 0 0 1 13 0 0 29 303 254 257 72 149 439
0 0 0 0 0 0 0 0 0 0 0 0 0 0 0 0 0 0 0 0 0 0 0 0 0 0 0 0 0 0 0 0 0 0 0 0 22 32 35 84 287 93 197 279 215
0 0 0 0 0 0 0 0 0 0 0 0 0 0 0 0 0 0 0 0 0 0 0 0 0 0 0 0 0 0 0 0 0 0 0 0 15 27 55 183 260 220 235 219 256
2 0 1 0 0 0 0 0 0 0 0 0 0 0 0 0 1 15 0 0 0 0 0 0 0 0 0 0 0 0 0 0 0 0 0 0 29 151 136 218 241 268 297 361 422
CIN
0 0 0 0 0 0 0 0 0 0 0 0 0 0 0 0 0 0 0 0 0 0 0 0 -108 -232 -216 -199 -203 -176 -32 -16 -19 -23 -23 -34 -5 -70 -75 -10 -46 -63 0 0 0
0 0 0 0 0 0 0 0 0 0 0 0 0 0 0 0 0 0 0 0 0 0 0 0 -113 -181 -139 -49 0 -120 -27 -53 -49 -55 -52 -37 -40 -38 -65 -43 -58 -104 0 0 -145
0 0 0 0 0 0 0 0 0 0 0 0 0 0 0 0 0 0 0 0 -32 0 0 0 0 -149 -105 -155 -135 -76 -47 -84 -82 -57 -59 -28 -22 -34 -42 -26 -32 -64 -121 -119 -98
0 0 0 0 0 0 0 0 0 0 0 0 0 0 0 0 0 0 0 -595 -345 0 0 0 0 -110 -85 -72 -107 -72 -81 -62 -45 -109 -59 -38 -42 -50 -35 -17 -26 -51 -93 -114 -86
0 0 0 0 0 0 0 0 0 0 0 0 0 0 0 0 0 0 -475 -301 0 0 0 0 0 -109 -52 -48 -67 -68 -65 -44 -92 -92 -52 -31 -49 -48 -26 -47 -48 -69 -91 -95 -77
0 0 0 0 0 0 0 0 0 0 0 0 0 0 0 0 0 0 0 0 0 0 0 0 0 -118 -61 -80 -67 -42 -68 -64 -75 -99 -56 -21 -46 -46 -36 -59 -53 -64 -76 -75 -70
0 0 0 0 0 0 0 0 0 0 0 0 0 0 0 0 0 0 0 0 0 0 0 0 -178 -137 -62 -70 -58 -42 -24 -29 -55 -48 -41 -78 -29 -25 -41 -35 -38 -45 -49 -64 -63
0 0 0 0 0 0 0 0 0 0 0 0 0 0 0 0 0 0 0 0 0 0 0 0 0 -87 -70 -114 -49 -29 -26 -15 -44 -62 -39 -57 -14 -47 -57 -34 -22 -30 -50 -54 -65
0 0 0 0 0 0 0 0 0 0 0 0 0 0 0 0 0 0 0 0 0 0 0 0 -59 -136 -104 -52 -54 -47 -26 -16 -19 -53 -17 -33 -40 -118 -97 -36 -36 -20 -35 -36 -43
0 0 0 0 0 0 0 0 0 0 0 0 0 0 0 0 0 0 0 0 0 0 0 0 -108 -48 -102 -44 -88 -40 -48 -46 -22 -31 -59 -28 -47 -132 -122 -58 -47 -45 -26 -36 -33
0 0 0 0 0 0 0 0 0 0 0 0 0 0 0 0 0 0 0 0 0 0 0 0 0 -75 -11 -27 -141 -60 -45 -61 -61 -37 -49 -22 -20 -39 -93 -96 -75 -89 -38 -35 -47
0 0 0 0 0 0 0 0 0 0 0 0 0 0 0 0 0 0 0 0 0 0 0 0 0 0 -99 -47 -58 -50 -89 -67 -99 -68 -30 -35 -23 -33 -68 -98 -84 -55 -53 -48 -39
0 0 0 0 0 0 0 0 0 0 0 0 0 0 0 0 0 0 0 0 0 0 0 0 0 0 0 -10 -59 -51 0 -132 -75 -78 -53 -39 -35 -77 -65 -78 -133 -126 -61 -53 -47
0 0 0 0 0 0 0 0 0 0 0 0 0 0 0 0 0 0 0 0 0 0 0 0 0 0 0 0 0 0 -69 -146 -80 -36 -11 -102 -2 -81 -66 -53 -81 -58 -64 -76 -80
0 0 0 0 0 0 0 0 0 0 0 0 0 0 0 0 0 0 0 0 0 0 0 0 0 0 0 0 0 -41 -135 -68 -76 -31 -36 -38 -6 -26 -114 -74 -68 -91 -86 -66 -75
0 -1 0 0 0 0 0 0 0 0 0 0 0 0 0 0 0 0 0 0 0 0 0 0 0 0 0 -121 -92 -170 -92 -129 -90 -39 -4 -61 -21 -4 -44 -53 -106 -110 -98 -94 -94
0 0 0 0 0 0 0 0 0 0 0 0 0 0 0 0 0 0 0 0 0 0 0 0 0 0 0 -76 -125 -67 -44 -30 -15 -3 0 -128 -39 -20 -87 -146 -128 -128 -131 -111 -93
0 0 0 0 0 0 0 0 0 0 0 0 0 0 0 0 0 0 0 0 0 0 0 0 0 0 0 -1 -12 -74 -31 0 0 0 -2 -120 -7 -10 -162 -187 -169 -138 -141 -111 -118
0 0 0 0 0 0 0 0 0 0 0 0 0 0 0 0 0 0 0 0 0 0 0 0 -2 -13 0 0 0 0 0 0 -1 -1 -13 -22 -6 -102 -179 -145 -129 -125 -133 -120 -113
0 0 0 0 0 0 0 0 0 0 0 0 0 0 0 0 0 0 0 0 0 0 0 0 -16 0 0 -15 0 0 0 -6 -13 -3 0 0 -36 -21 -89 -88 -94 -97 -91 -106 -110
0 0 0 0 0 0 0 0 0 0 0 0 0 0 0 0 0 0 0 0 0 0 0 0 0 0 -3 -98 -39 -37 -38 0 -12 -56 -1 -2 0 -21 -77 -69 -72 -87 -91 -110 -75
0 0 0 0 0 0 0 0 0 0 0 0 0 0 0 0 0 0 0 0 0 0 0 0 0 0 0 0 0 0 0 -45 -1 -37 -122 -59 0 0 -97 -96 -105 -87 -105 -8 -193
0 0 0 0 0 0 0 0 0 0 0 0 0 0 0 0 0 0 0 0 0 0 0 0 0 -20 -25 -5 0 -26 0 0 0 -87 -52 -9 0 -32 -125 -121 -122 -113 -108 -94 -74
0 0 0 0 0 0 0 0 0 0 0 0 0 0 0 0 0 0 0 0 0 0 0 0 0 -2 0 0 0 0 0 0 0 0 -13 -15 0 0 -55 -84 -102 -99 -136 -94 -68
0 0 0 0 0 0 0 0 0 0 0 0 0 0 0 0 0 0 0 0 0 0 0 0 0 0 0 0 0 0 0 0 0 0 0 0 -37 -15 -83 -103 -103 -138 -102 -88 -76
0 0 0 0 0 0 0 0 0 0 0 0 0 0 0 0 0 -5 0 0 0 0 0 0 0 0 0 0 0 0 0 0 0 0 0 -1 -29 -80 -189 -197 -156 -132 -108 -103 -87
0 0 0 0 0 0 0 0 0 0 0 0 0 0 0 0 -110 -279 -14 0 0 0 0 0 0 0 0 0 0 0 0 0 0 0 0 0 -30 -143 -140 -137 -133 -140 -149 -125 -105
Wind_Speed
13 12 12 12 12 12 11 10 10 10 10 10 10 11 10 10 10 3 5 2 4 9 8 9 4 4 2 3 2 1 1 4 5 6 8 6 6 6 3 11 3 3 6 12 17
14 14 13 13 12 12 12 11 11 10 10 11 10 10 9 9 2 6 5 5 9 11 9 9 5 2 3 3 2 2 3 3 3 4 4 5 6 7 6 9 5 10 12 17 16
15 15 14 13 12 12 12 11 10 10 10 10 10 9 8 6 3 1 7 9 8 7 4 3 4 1 3 2 3 2 4 5 6 6 4 3 5 4 11 5 4 12 16 17 15
17 16 15 13 12 12 12 11 11 10 10 10 9 8 8 2 4 2 11 11 8 3 7 6 4 1 2 3 2 5 6 4 2 5 4 3 1 3 10 1 8 15 16 16 14
17 17 16 14 14 12 12 12 11 10 10 9 8 7 3 3 2 1 11 11 6 4 6 5 4 2 2 3 4 10 4 5 5 5 4 2 6 1 9 6 14 14 14 14 12
18 17 17 15 14 13 12 11 11 10 9 7 6 5 3 3 3 8 12 8 5 5 6 4 2 3 5 3 1 5 11 9 5 5 4 3 3 1 8 11 13 15 14 12 13
18 17 17 16 16 15 14 12 11 9 7 5 3 3 2 3 4 8 9 5 5 4 4 2 1 3 5 4 4 13 10 6 6 4 1 0 3 2 3 11 14 13 12 11 11
17 18 18 17 17 16 16 14 11 9 6 4 2 2 2 3 8 7 4 4 2 3 1 1 1 5 2 6 5 3 4 4 8 5 2 4 3 6 2 12 13 13 11 10 11
17 16 18 18 17 17 16 14 9 5 4 4 2 2 1 6 4 5 5 5 6 3 2 1 1 3 3 4 3 1 1 1 6 7 5 4 6 11 7 10 12 13 12 11 10
18 16 17 18 18 14 14 3 8 6 2 3 3 3 2 2 4 6 4 3 3 7 5 2 1 2 2 6 3 3 2 1 1 9 3 9 11 12 9 10 12 12 12 11 12
20 18 16 18 18 11 6 2 2 3 3 4 1 2 3 1 4 4 4 6 3 3 5 1 5 7 8 9 2 3 3 1 1 5 9 11 6 12 10 5 6 12 12 14 15
21 20 18 17 20 2 3 1 3 3 6 4 5 5 4 2 3 3 6 3 2 4 3 4 10 4 6 10 8 7 6 0 4 5 7 3 6 11 12 5 9 10 12 15 14
22 21 20 18 14 3 2 3 5 3 3 2 4 4 3 7 5 8 7 3 3 5 6 8 1 5 7 7 9 9 7 5 3 5 2 2 4 7 13 10 9 10 11 13 15
22 21 18 23 3 1 3 4 2 3 2 2 3 4 6 4 4 2 6 3 2 7 5 5 2 4 8 11 10 10 6 10 12 7 0 1 3 6 13 13 12 15 15 14 15
21 20 17 9 5 3 4 3 6 4 2 3 3 5 3 5 7 5 1 3 5 7 6 3 4 8 8 7 12 1 8 11 10 4 2 3 5 3 4 11 16 17 16 17 14
26 21 16 2 2 4 6 1 3 2 4 2 4 5 5 1 4 4 4 2 2 4 4 6 1 4 1 8 8 13 14 9 5 1 4 2 3 1 4 2 2 10 15 16 13
27 22 4 2 0 4 4 3 2 4 3 2 2 4 5 5 6 6 9 9 6 5 6 2 2 2 3 10 4 4 6 3 4 5 3 1 4 6 1 1 2 4 5 10 14
30 13 6 4 3 6 2 2 5 1 3 2 2 1 6 9 6 7 8 9 6 3 2 5 6 3 3 2 5 7 4 5 5 4 1 2 5 1 1 1 2 2 4 6 9
22 1 1 3 3 2 3 6 4 4 1 3 1 2 3 4 4 6 8 7 6 13 6 5 3 4 3 2 2 7 5 3 7 1 4 2 4 8 5 4 5 5 4 4 4
5 4 5 5 4 1 2 3 3 4 2 1 1 1 2 2 6 8 9 4 8 12 3 5 4 1 2 2 11 1 8 4 2 4 4 3 4 7 5 8 7 4 4 4 6
2 2 1 2 3 2 4 4 4 6 5 3 2 3 2 1 4 6 6 4 6 8 5 6 3 4 3 4 3 5 5 5 4 3 3 4 3 2 5 5 3 2 3 5 8
5 1 3 2 2 1 3 4 2 3 0 2 3 4 3 1 4 5 10 6 10 13 11 3 3 3 3 2 3 1 2 3 4 5 1 2 3 4 5 4 3 3 2 4 7
4 4 3 3 1 1 2 3 3 2 2 1 2 4 2 4 4 6 7 1 9 10 11 10 2 5 5 6 4 3 3 3 6 3 6 3 0 4 5 7 7 6 5 6 5
3 4 3 4 2 2 4 1 2 3 3 2 2 0 2 5 6 2 3 2 5 3 6 7 5 5 7 1 3 5 6 6 5 5 6 6 6 4 7 10 9 7 5 4 3
3 3 2 4 3 5 2 2 3 3 3 2 3 5 4 4 2 5 3 3 3 7 4 3 5 3 2 4 5 5 7 11 11 5 7 1 8 5 0 6 8 8 5 3 2
4 4 3 2 2 3 0 0 1 4 3 2 2 9 5 4 3 5 5 2 3 5 3 1 5 4 5 3 4 5 7 10 10 6 11 8 12 3 3 5 9 8 6 5 5
3 2 3 2 3 2 2 1 3 5 5 7 5 8 8 1 9 14 10 11 5 4 6 6 9 7 5 4 3 8 12 12 7 7 9 10 7 8 5 6 6 7 7 6 4
Wind_Direction
350 344 338 332 327 321 317 315 314 312 312 314 318 322 329 330 311 214 241 204 177 152 152 141 158 140 117 85 53 130 148 108 97 118 109 71 128 167 102 142 89 13 143 141 150
349 343 337 331 325 318 314 315 315 315 313 315 315 319 325 335 278 242 261 168 168 155 151 163 159 144 95 77 50 30 86 67 19 57 88 72 148 170 135 157 85 87 109 133 152
352 349 341 332 327 320 315 313 313 310 310 314 313 315 318 320 225 79 177 173 176 170 157 161 149 10 71 41 24 49 76 148 53 80 55 59 146 165 152 185 158 155 150 154 164
351 347 341 335 326 320 315 313 311 312 311 308 311 313 312 244 119 138 170 153 165 164 145 147 148 148 66 75 52 94 69 114 112 48 43 52 266 187 180 72 161 158 160 160 173
350 350 345 337 329 321 313 312 312 309 306 305 308 312 273 203 92 208 158 137 140 162 172 174 170 133 78 110 105 104 149 58 62 25 15 130 94 308 185 101 134 144 165 167 176
353 349 345 340 330 317 310 309 308 307 304 303 306 303 264 139 92 145 141 144 167 172 165 183 233 192 111 101 342 136 138 125 67 346 342 67 36 55 156 137 142 156 176 178 182
353 349 344 338 330 321 315 308 303 299 294 291 287 271 243 66 128 147 148 175 173 176 171 221 117 243 132 126 94 128 118 129 152 184 279 310 9 20 204 161 156 175 185 189 194
341 351 345 340 331 325 318 309 295 283 275 257 245 257 257 104 135 150 173 126 188 223 303 36 89 110 21 120 112 146 159 152 163 174 72 81 307 356 128 172 175 185 192 198 210
337 337 345 338 332 329 321 310 277 243 231 164 200 307 148 134 184 170 186 154 153 183 273 65 167 82 167 161 124 55 336 59 126 193 135 101 264 275 276 200 189 193 203 206 213
336 334 337 337 333 334 323 326 120 137 183 206 251 217 206 152 157 139 182 157 151 134 120 176 97 155 183 207 46 131 161 184 189 179 169 173 195 242 250 206 201 203 209 220 226
335 333 332 335 332 324 299 200 226 163 193 237 126 283 303 347 150 141 155 155 149 146 164 141 206 224 215 226 78 86 10 28 135 163 192 216 218 220 223 230 216 222 214 220 228
333 331 331 333 333 355 197 223 146 71 303 227 249 267 263 272 151 127 167 157 165 146 147 181 242 199 229 229 252 274 295 237 97 144 215 191 226 219 210 219 239 231 226 231 230
331 330 329 332 329 187 267 227 107 135 248 274 193 195 180 175 178 194 175 133 137 155 190 224 211 115 205 229 228 241 245 174 120 140 130 298 226 190 220 234 241 240 248 247 236
330 329 329 331 269 344 238 115 313 208 309 189 213 174 139 174 175 159 165 155 157 200 164 247 194 201 200 234 217 260 206 158 138 174 185 289 341 210 209 226 230 242 226 238 229
329 327 326 321 324 221 99 351 129 212 231 119 149 121 143 191 134 178 189 162 182 172 195 186 186 193 203 235 188 49 171 147 148 125 203 158 265 106 167 230 231 239 235 233 231
326 326 325 139 219 271 325 250 215 268 245 149 137 166 160 132 130 116 170 90 67 184 233 262 257 237 60 85 128 129 108 89 80 135 253 53 281 222 191 186 231 240 236 233 226
327 323 267 212 44 331 318 177 207 230 3 127 178 174 197 170 185 177 173 191 216 192 217 213 200 348 157 108 143 139 164 145 197 205 290 39 233 280 220 253 287 284 274 240 236
327 324 176 242 292 331 203 126 216 216 265 345 18 167 208 173 194 172 170 198 203 191 176 204 175 6 9 256 186 176 253 246 243 233 139 174 234 208 255 254 291 299 298 278 245
320 5 236 327 250 226 163 200 218 208 252 320 24 207 202 189 203 182 200 209 213 193 223 170 119 133 127 136 242 155 206 65 110 106 245 158 265 254 205 229 280 273 275 282 279
334 330 11 350 165 143 156 215 239 235 293 229 59 244 240 164 187 200 182 197 214 192 213 177 151 84 132 257 54 276 125 176 194 196 264 209 265 259 219 238 264 285 285 319 333
323 48 42 270 274 66 190 220 251 247 238 241 199 238 230 221 208 201 209 189 200 162 173 156 261 131 214 23 140 152 161 70 101 340 284 293 282 208 206 196 238 271 300 336 328
334 89 12 300 73 353 173 196 259 277 145 264 241 245 228 241 234 230 217 247 159 152 170 143 136 144 89 131 311 343 109 185 247 177 79 327 276 161 206 188 183 176 245 329 327
353 296 334 301 203 141 318 269 269 288 275 286 265 227 193 245 233 208 207 37 159 154 162 175 125 141 158 172 182 211 128 113 102 140 181 239 193 164 188 191 202 226 263 280 301
321 335 353 49 30 12 4 306 261 317 265 330 287 324 310 236 221 246 232 111 177 128 95 132 136 212 236 228 125 176 175 178 237 204 153 233 281 251 212 216 206 211 222 239 251
5 61 34 354 39 348 304 306 313 335 340 305 174 51 352 289 250 219 170 162 80 146 83 187 157 182 139 164 189 183 182 187 209 209 231 223 222 287 354 214 190 177 197 222 248
356 351 357 297 288 297 226 169 324 337 310 329 17 337 336 277 34 334 334 181 198 179 141 70 135 154 170 187 235 232 203 203 221 224 251 253 257 253 163 136 164 188 201 230 279
9 347 295 353 333 279 226 208 134 5 268 274 347 329 298 319 320 295 263 278 297 215 148 150 145 170 191 189 231 236 220 198 196 211 226 217 240 158 162 169 168 182 204 229 248